Time,TemperatureF,DewpointF,PressureIn,WindDirection,WindDirectionDegrees,WindSpeedMPH,WindSpeedGustMPH,Humidity,HourlyPrecipIn,Conditions,Clouds,dailyrainin,SoftwareType,DateUTC
2013-04-27 00:02:00,73.0,-99.9,-100.00,South,185,4.0,8.0,-999,-99.99,,,-99.99,,2013-04-27 07:02:00,
2013-04-27 00:11:00,73.0,-99.9,-100.00,South,185,4.0,8.0,-999,-99.99,,,-99.99,,2013-04-27 07:11:00,
2013-04-27 00:22:00,72.0,-99.9,-100.00,SSW,207,1.0,7.0,-999,-99.99,,,-99.99,,2013-04-27 07:22:00,
2013-04-27 00:32:00,73.0,-99.9,-100.00,South,185,6.0,6.0,-999,-99.99,,,-99.99,,2013-04-27 07:32:00,
2013-04-27 00:42:00,73.0,-99.9,-100.00,South,185,6.0,6.0,-999,-99.99,,,-99.99,,2013-04-27 07:42:00,
2013-04-27 01:30:00,68.0,-99.9,-100.00,NE,53,7.0,8.0,-999,-99.99,,,-99.99,,2013-04-27 08:30:00,
2013-04-27 02:22:00,68.0,-99.9,-100.00,NE,53,7.0,8.0,-999,-99.99,,,-99.99,,2013-04-27 09:22:00,
2013-04-27 03:03:00,65.0,-99.9,-100.00,ESE,121,3.0,8.0,-999,-99.99,,,-99.99,,2013-04-27 10:03:00,
2013-04-27 03:12:00,65.0,-99.9,-100.00,ESE,121,3.0,8.0,-999,-99.99,,,-99.99,,2013-04-27 10:12:00,
2013-04-27 03:23:00,65.0,-99.9,-100.00,ESE,121,3.0,8.0,-999,-99.99,,,-99.99,,2013-04-27 10:23:00,
2013-04-27 03:33:00,68.0,-99.9,-100.00,NE,52,3.0,10.0,-999,-99.99,,,-99.99,,2013-04-27 10:33:00,
2013-04-27 03:42:00,68.0,-99.9,-100.00,NE,52,3.0,10.0,-999,-99.99,,,-99.99,,2013-04-27 10:42:00,
2013-04-27 04:03:00,66.0,-99.9,-100.00,ENE,58,4.0,4.0,-999,-99.99,,,-99.99,,2013-04-27 11:03:00,
2013-04-27 04:12:00,66.0,-99.9,-100.00,ENE,58,4.0,4.0,-999,-99.99,,,-99.99,,2013-04-27 11:12:00,
2013-04-27 04:22:00,66.0,-99.9,-100.00,ENE,58,4.0,4.0,-999,-99.99,,,-99.99,,2013-04-27 11:22:00,
2013-04-27 04:52:00,67.0,-99.9,-100.00,North,10,9.0,11.0,-999,-99.99,,,-99.99,,2013-04-27 11:52:00,
2013-04-27 05:02:00,67.0,-99.9,-100.00,North,10,9.0,11.0,-999,-99.99,,,-99.99,,2013-04-27 12:02:00,
2013-04-27 06:02:00,68.0,-99.9,-100.00,South,171,5.0,9.0,-999,-99.99,,,-99.99,,2013-04-27 13:02:00,
2013-04-27 06:12:00,68.0,-99.9,-100.00,South,171,5.0,9.0,-999,-99.99,,,-99.99,,2013-04-27 13:12:00,
2013-04-27 06:22:00,68.0,-99.9,-100.00,South,171,5.0,9.0,-999,-99.99,,,-99.99,,2013-04-27 13:22:00,
2013-04-27 06:40:00,64.0,-99.9,-100.00,SSW,207,5.0,10.0,-999,-99.99,,,-99.99,,2013-04-27 13:40:00,
2013-04-27 07:20:00,67.0,-99.9,-100.00,NNW,342,2.0,3.0,-999,-99.99,,,-99.99,,2013-04-27 14:20:00,
2013-04-27 07:22:00,64.0,-99.9,-100.00,SSW,207,5.0,10.0,-999,-99.99,,,-99.99,,2013-04-27 14:22:00,
2013-04-27 07:32:00,64.0,-99.9,-100.00,SSW,207,5.0,10.0,-999,-99.99,,,-99.99,,2013-04-27 14:32:00,
2013-04-27 08:02:00,67.0,-99.9,-100.00,NNW,342,2.0,3.0,-999,-99.99,,,-99.99,,2013-04-27 15:02:00,
2013-04-27 08:12:00,67.0,-99.9,-100.00,NNW,342,2.0,3.0,-999,-99.99,,,-99.99,,2013-04-27 15:12:00,
2013-04-27 08:50:00,79.0,-99.9,-100.00,NW,312,1.0,6.0,-999,-99.99,,,-99.99,,2013-04-27 15:50:00,
2013-04-27 09:33:00,79.0,-99.9,-100.00,NW,312,1.0,6.0,-999,-99.99,,,-99.99,,2013-04-27 16:33:00,
2013-04-27 09:42:00,79.0,-99.9,-100.00,NW,312,1.0,6.0,-999,-99.99,,,-99.99,,2013-04-27 16:42:00,
2013-04-27 10:20:00,87.0,-99.9,-100.00,ESE,113,2.0,12.0,-999,-99.99,,,-99.99,,2013-04-27 17:20:00,
2013-04-27 10:22:00,85.0,-99.9,-100.00,NNE,24,10.0,14.0,-999,-99.99,,,-99.99,,2013-04-27 17:22:00,
2013-04-27 10:32:00,86.0,-99.9,-100.00,NE,35,8.0,14.0,-999,-99.99,,,-99.99,,2013-04-27 17:32:00,
2013-04-27 10:42:00,86.0,-99.9,-100.00,NE,35,8.0,14.0,-999,-99.99,,,-99.99,,2013-04-27 17:42:00,
2013-04-27 10:53:00,86.0,-99.9,-100.00,NE,35,8.0,14.0,-999,-99.99,,,-99.99,,2013-04-27 17:53:00,
2013-04-27 11:02:00,87.0,-99.9,-100.00,ESE,113,2.0,12.0,-999,-99.99,,,-99.99,,2013-04-27 18:02:00,
2013-04-27 11:12:00,87.0,-99.9,-100.00,ESE,113,2.0,12.0,-999,-99.99,,,-99.99,,2013-04-27 18:12:00,
2013-04-27 11:30:00,91.0,-99.9,-100.00,WSW,250,3.0,11.0,-999,-99.99,,,-99.99,,2013-04-27 18:30:00,
2013-04-27 11:52:00,90.0,-99.9,-100.00,SW,217,6.0,12.0,-999,-99.99,,,-99.99,,2013-04-27 18:52:00,
2013-04-27 12:02:00,91.0,-99.9,-100.00,WSW,250,3.0,11.0,-999,-99.99,,,-99.99,,2013-04-27 19:02:00,
2013-04-27 12:11:00,91.0,-99.9,-100.00,WSW,250,3.0,11.0,-999,-99.99,,,-99.99,,2013-04-27 19:11:00,
2013-04-27 12:22:00,91.0,-99.9,-100.00,WSW,250,3.0,11.0,-999,-99.99,,,-99.99,,2013-04-27 19:22:00,
2013-04-27 13:02:00,92.0,-99.9,-100.00,North,358,2.0,5.0,-999,-99.99,,,-99.99,,2013-04-27 20:02:00,
2013-04-27 13:10:00,92.0,-99.9,-100.00,West,277,2.0,8.0,-999,-99.99,,,-99.99,,2013-04-27 20:10:00,
2013-04-27 13:11:00,92.0,-99.9,-100.00,North,358,2.0,5.0,-999,-99.99,,,-99.99,,2013-04-27 20:11:00,
2013-04-27 13:22:00,92.0,-99.9,-100.00,North,358,2.0,5.0,-999,-99.99,,,-99.99,,2013-04-27 20:22:00,
2013-04-27 13:32:00,93.0,-99.9,-100.00,North,3,5.0,10.0,-999,-99.99,,,-99.99,,2013-04-27 20:32:00,
2013-04-27 13:42:00,93.0,-99.9,-100.00,North,3,5.0,10.0,-999,-99.99,,,-99.99,,2013-04-27 20:42:00,
2013-04-27 13:52:00,92.0,-99.9,-100.00,West,277,2.0,8.0,-999,-99.99,,,-99.99,,2013-04-27 20:52:00,
2013-04-27 14:02:00,92.0,-99.9,-100.00,West,277,2.0,8.0,-999,-99.99,,,-99.99,,2013-04-27 21:02:00,
2013-04-27 14:22:00,94.0,-99.9,-100.00,NNE,24,7.0,11.0,-999,-99.99,,,-99.99,,2013-04-27 21:22:00,
2013-04-27 14:30:00,92.0,-99.9,-100.00,WSW,254,6.0,18.0,-999,-99.99,,,-99.99,,2013-04-27 21:30:00,
2013-04-27 14:33:00,94.0,-99.9,-100.00,NNE,27,6.0,9.0,-999,-99.99,,,-99.99,,2013-04-27 21:33:00,
2013-04-27 14:43:00,94.0,-99.9,-100.00,NNE,27,6.0,9.0,-999,-99.99,,,-99.99,,2013-04-27 21:43:00,
2013-04-27 14:53:00,94.0,-99.9,-100.00,NE,37,7.0,17.0,-999,-99.99,,,-99.99,,2013-04-27 21:53:00,
2013-04-27 15:03:00,92.0,-99.9,-100.00,WSW,254,6.0,18.0,-999,-99.99,,,-99.99,,2013-04-27 22:03:00,
2013-04-27 15:13:00,92.0,-99.9,-100.00,WSW,254,6.0,18.0,-999,-99.99,,,-99.99,,2013-04-27 22:13:00,
2013-04-27 15:23:00,92.0,-99.9,-100.00,WSW,254,6.0,18.0,-999,-99.99,,,-99.99,,2013-04-27 22:23:00,
2013-04-27 15:53:00,94.0,-99.9,-100.00,NNE,33,5.0,9.0,-999,-99.99,,,-99.99,,2013-04-27 22:53:00,
2013-04-27 16:03:00,94.0,-99.9,-100.00,NNE,33,5.0,9.0,-999,-99.99,,,-99.99,,2013-04-27 23:03:00,
2013-04-27 17:52:00,94.0,-99.9,-100.00,NE,52,2.0,22.0,-999,-99.99,,,-99.99,,2013-04-28 00:52:00,
2013-04-27 18:02:00,94.0,-99.9,-100.00,NE,55,15.0,16.0,-999,-99.99,,,-99.99,,2013-04-28 01:02:00,
2013-04-27 18:12:00,94.0,-99.9,-100.00,NE,55,15.0,16.0,-999,-99.99,,,-99.99,,2013-04-28 01:12:00,
2013-04-27 18:22:00,93.0,-99.9,-100.00,NE,42,11.0,13.0,-999,-99.99,,,-99.99,,2013-04-28 01:22:00,
2013-04-27 18:32:00,93.0,-99.9,-100.00,North,351,7.0,11.0,-999,-99.99,,,-99.99,,2013-04-28 01:32:00,
2013-04-27 18:42:00,93.0,-99.9,-100.00,North,351,7.0,11.0,-999,-99.99,,,-99.99,,2013-04-28 01:42:00,
2013-04-27 18:50:00,91.0,-99.9,-100.00,NE,41,7.0,9.0,-999,-99.99,,,-99.99,,2013-04-28 01:50:00,
2013-04-27 18:52:00,93.0,-99.9,-100.00,North,351,7.0,11.0,-999,-99.99,,,-99.99,,2013-04-28 01:52:00,
2013-04-27 19:02:00,92.0,-99.9,-100.00,South,174,8.0,9.0,-999,-99.99,,,-99.99,,2013-04-28 02:02:00,
2013-04-27 19:12:00,92.0,-99.9,-100.00,South,174,8.0,9.0,-999,-99.99,,,-99.99,,2013-04-28 02:12:00,
2013-04-27 19:22:00,92.0,-99.9,-100.00,South,174,8.0,9.0,-999,-99.99,,,-99.99,,2013-04-28 02:22:00,
2013-04-27 19:32:00,91.0,-99.9,-100.00,NE,41,7.0,9.0,-999,-99.99,,,-99.99,,2013-04-28 02:32:00,
2013-04-27 19:42:00,91.0,-99.9,-100.00,NE,41,7.0,9.0,-999,-99.99,,,-99.99,,2013-04-28 02:42:00,
2013-04-27 20:30:00,83.0,-99.9,-100.00,NNE,27,8.0,11.0,-999,-99.99,,,-99.99,,2013-04-28 03:30:00,
2013-04-27 20:53:00,85.0,-99.9,-100.00,North,2,4.0,6.0,-999,-99.99,,,-99.99,,2013-04-28 03:53:00,
2013-04-27 21:03:00,84.0,-99.9,-100.00,North,9,6.0,8.0,-999,-99.99,,,-99.99,,2013-04-28 04:03:00,
2013-04-27 21:13:00,84.0,-99.9,-100.00,North,9,6.0,8.0,-999,-99.99,,,-99.99,,2013-04-28 04:13:00,
2013-04-27 21:23:00,83.0,-99.9,-100.00,NNE,27,8.0,11.0,-999,-99.99,,,-99.99,,2013-04-28 04:23:00,
2013-04-27 22:00:00,76.0,-99.9,-100.00,SSW,199,4.0,5.0,-999,-99.99,,,-99.99,,2013-04-28 05:00:00,
2013-04-27 22:02:00,81.0,-99.9,-100.00,NE,42,4.0,11.0,-999,-99.99,,,-99.99,,2013-04-28 05:02:00,
2013-04-27 22:12:00,81.0,-99.9,-100.00,NE,42,4.0,11.0,-999,-99.99,,,-99.99,,2013-04-28 05:12:00,
2013-04-27 22:22:00,80.0,-99.9,-100.00,South,187,11.0,11.0,-999,-99.99,,,-99.99,,2013-04-28 05:22:00,
2013-04-27 22:33:00,78.0,-99.9,-100.00,SSE,164,8.0,9.0,-999,-99.99,,,-99.99,,2013-04-28 05:33:00,
2013-04-27 22:40:00,77.0,-99.9,-100.00,South,187,4.0,8.0,-999,-99.99,,,-99.99,,2013-04-28 05:40:00,
2013-04-27 22:42:00,78.0,-99.9,-100.00,SSE,164,8.0,9.0,-999,-99.99,,,-99.99,,2013-04-28 05:42:00,
2013-04-27 22:52:00,76.0,-99.9,-100.00,SSW,199,4.0,5.0,-999,-99.99,,,-99.99,,2013-04-28 05:52:00,
2013-04-27 23:22:00,77.0,-99.9,-100.00,South,187,4.0,8.0,-999,-99.99,,,-99.99,,2013-04-28 06:22:00,
2013-04-27 23:32:00,77.0,-99.9,-100.00,South,187,4.0,8.0,-999,-99.99,,,-99.99,,2013-04-28 06:32:00,
2013-04-27 23:40:00,74.0,-99.9,-100.00,North,9,5.0,5.0,-999,-99.99,,,-99.99,,2013-04-28 06:40:00,
2013-04-27 23:52:00,77.0,-99.9,-100.00,NNE,20,12.0,12.0,-999,-99.99,,,-99.99,,2013-04-28 06:52:00,